Regional Weather Roundup
Issued by NWS Charleston, WV

Home | Current Version | Previous Version | Graphics & Text | Print | Product List | Glossary On
Versions: 1 2 3 4 5 6 7 8 9 10 11 12 13 14 15 16 17 18 19 20 21 22 23 24 25 26 27
000
ASUS41 KRLX 171710
RWRRLX
West Virginia Regional Weather Roundup
National Weather Service Charleston WV
100 PM EDT THU APR 17 2014

Note: "fair" indicates few or no clouds below 12,000 feet with no
significant weather and/or obstructions to visibility.

WVZ003-171800-
Northern Panhandle of West Virginia

CITY           SKY/WX    TMP DP  RH WIND       PRES   REMARKS
WHEELING       SUNNY     58  25  28 MISG      30.41F
$$

WVZ009-171800-
Northwest West Virginia

CITY           SKY/WX    TMP DP  RH WIND       PRES   REMARKS
PARKERSBURG    SUNNY     61  25  25 MISG      30.43F
$$

WVZ006-171800-
Western West Virginia

CITY           SKY/WX    TMP DP  RH WIND       PRES   REMARKS
HUNTINGTON     MOSUNNY   63  23  21 W8        30.40F
$$

WVZ015-171800-
West Central West Virginia

CITY           SKY/WX    TMP DP  RH WIND       PRES   REMARKS
CHARLESTON     MOSUNNY   63  24  22 VRB3      30.41F
$$

WVZ031-171800-
North Central West Virginia

CITY           SKY/WX    TMP DP  RH WIND       PRES   REMARKS
CLARKSBURG     PTSUNNY   58  21  24 VRB3      30.42F
MORGANTOWN     MOSUNNY   61  21  21 E5        30.43F
$$

WVZ035-042-045-171800-
South Central West Virginia

CITY           SKY/WX    TMP DP  RH WIND       PRES   REMARKS
BECKLEY        SUNNY     52  21  29 E7        30.45F
BLUEFIELD      SUNNY     52  21  29 E8        30.46F
LEWISBURG      MOSUNNY   49  20  31 NE3       30.48F
$$

WVZ047-171800-
Northern Mountains of West Virginia

CITY           SKY/WX    TMP DP  RH WIND       PRES   REMARKS
ELKINS         SUNNY     60  19  20 VRB5      30.43F
$$

WVZ052-171800-
Eastern Panhandle of West Virginia

CITY           SKY/WX    TMP DP  RH WIND       PRES   REMARKS
MARTINSBURG    SUNNY     51  24  34 S10G16    30.60F
PETERSBURG     SUNNY     57  32  39 E8        30.54F
$$



USA.gov is the U.S. government's official web portal to all federal, state and local government web resources and services.